Location: *
(60.1759°S, 155.0663°W)
Time: 00:07:53
(UTC+00:00)

Cosmos 1805 Rocket - Pass Details

Date: 17 September 2019
Orbit: 606 x 630 km, 82.5° (Epoch: 16 October)

Event Time Altitude Azimuth Distance (km) Brightness Sun altitude
Exits shadow 12:39:41 57° 79° (E) 740 4.0 -25.8°
Maximum altitude 12:39:44 57° 83° (E) 739 4.0 -25.8°
Drops below altitude 10° 12:44:05 10° 160° (SSE) 2,006 7.0 -25.4°
Sets 12:46:21 0° 164° (SSE) 2,917 8.0 -25.2°
